Location: Huntsville
(41.2590°N, 111.7678°W)
Time: 10:35:28
(UTC+00:00)

Transit 4A - Visible Passes

Search period start: 13 June 2021 00:00
Search period end: 23 June 2021 00:00
Orbit: 871 x 973 km, 66.8° (Epoch: 12 June)

Date Brightness Start Highest point End Pass type
(mag) Time Alt. Az. Time Alt. Az. Time Alt. Az.
13 Jun 8.2 03:56:02 10° NW 04:01:46 60° WSW 04:07:30 10° SSE visible
14 Jun 8.9 04:05:34 10° NW 04:10:57 40° WSW 04:16:20 10° S visible
15 Jun 9.5 04:15:20 10° NW 04:20:02 26° WSW 04:24:48 10° SSW visible
16 Jun 10.1 04:25:29 10° WNW 04:29:05 17° WSW 04:32:42 10° SW visible
17 Jun 10.5 04:37:27 10° W 04:38:03 10° W 04:38:39 10° WSW visible
